Location: Newark
(20.0000°S, 47.0000°E)
Time: 13:10:48
(UTC+00:00)

N. Korean satellite - Pass Details

Date: 18 August 2020
Orbit: 455 x 503 km, 97.2° (Epoch: 20 September)

Event Time Altitude Azimuth Distance (km) Brightness Sun altitude
Rises 14:58:07 0° 193° (SSW) 2,524 10.2 -4.9°
Reaches altitude 10° 15:00:44 10° 213° (SSW) 1,629 9.5 -5.5°
Maximum altitude 15:03:01 17° 254° (WSW) 1,265 9.7 -6.0°
Drops below altitude 10° 15:05:16 10° 295° (WNW) 1,603 10.8 -6.5°
Sets 15:07:49 0° 317° (NW) 2,462 11.1 -7.1°
